星链-34291 (STARLINK-34291)

导读 | 豆包AI

STARLINK-34291是美国于2025年6月13日发射的星链卫星,归属SpaceX星链互联网卫星星座项目。星链旨在为全球提供低延迟、高速率的宽带互联网服务,该卫星延续了星链批量部署策略,升空后将参与星座组网,补充覆盖全球偏远地区网络盲区,进一步完善星链星座的通信服务能力与覆盖稳定性。

基本信息
目录编号:
64359
目录名称:
STARLINK-34291
国际标识:
2025-126R
轨道中心:
EARTH
卫星名称:
星链-34291
卫星全名:
星链-34291 (STARLINK-34291)
卫星状态:
在轨 (已飞行274 天)
发射日期:
2025-06-13 UTC
国别 :
美国 (US)
星等 :
--
轨道信息
数据来源 国际轨道数据
星历时间: 2026-03-14T13:37:06+0800
11小时前
查看轨道信息
半长轴: 6950.15km
偏心率: 0.0002954
轨道倾角: 70.002°
近地点辐角 274.478°
升交点赤经 22.952°
平近点角 85.604°
近地点: 569.959km
远地点: 574.067km
周期: 96.106分钟
每日圈数: 14.98344
详细信息
固有亮度:
5
最大亮度:
2.5
卫星平台:
Starlink V1.0
覆盖范围:
全球
运营商:
太空探索技术公司
运营商所在国:
美国
制造商(研发单位):
太空探索技术公司
制造商所在国:
美国
使用方式:
暂无
卫星简介
Starlink 计划是 SpaceX 推出的全球卫星互联网项目,通过发射低轨道卫星,为全球尤其是偏远地区提供高速、低延迟的互联网服务。自 2019 年起,Starlink 已部署数千颗卫星,旨在缩小全球数字鸿沟,推动互联网普及。该项目还为军事、航空等行业提供通信支持,带来广泛经济效益。
2D轨道图
3D轨道图
轨道高度分析图
轨道倾角分析图
轨道综合分析图
查看轨道综合分析图